Waukegan, IL

2:19 PM CST on February 08, 2016 (GMT -0600)
Waukegan Regional

Weather History for KUGN - March, 2014

Change the Weather History Date:

Thursday, March 13, 2014

  Actual Average Record
Temperature  
Mean Temperature 23 °F -  
Max Temperature 39 °F 43 °F 72 °F (2007)
Min Temperature 10 °F 26 °F 8 °F (2005)
Degree Days  
Heating Degree Days 42 31  
Month to date heating degree days 425  
Since 1 July heating degree days 5371  
Cooling Degree Days 0 0  
Month to date cooling degree days 0  
Year to date cooling degree days 0  
Moisture  
Dew Point 17 °F    
Average Humidity 73    
Maximum Humidity 89    
Minimum Humidity 55    
Precipitation  
Precipitation 0.00 in 0.06 in 0.54 in (2006)
Month to date precipitation 0.81  
Year to date precipitation 3.86  
Sea Level Pressure  
Sea Level Pressure 30.04 in    
Wind  
Wind Speed 8 mph (SSW)    
Max Wind Speed 23 mph    
Max Gust Speed 28 mph    
Visibility 9 miles    
Events      
T = Trace of Precipitation, MM = Missing Value Source: NWS Daily Summary

Daily Weather History Graph

Daily Weather History Graph

Search for Another Location

Airport or City:

Trip Planner

Search our weather history database for the weather conditions in past years. The results will help you decide how hot, cold, wet, or windy it might be!

Date:

Astronomy

Mar. 13, 2014 Rise Set
Actual Time 7:06 AM CDT 6:55 PM CDT
Civil Twilight 6:38 AM CDT 7:23 PM CDT
Nautical Twilight 6:06 AM CDT 7:56 PM CDT
Astronomical Twilight 5:33 AM CDT 8:29 PM CDT
Moon 4:18 PM CDT (3/13) 5:16 AM CDT (3/13)
Length of Visible Light 12h 44m
Length of Day
11h 48m
Waxing Gibbous, 91% of the Moon is Illuminated
Mar 13
Waxing Gibbous
Mar 16
Full
Mar 23
Last Quarter
Mar 30
New
Apr 7
First Quarter

Hourly Weather History & Observations

Time (CDT) Temp. Windchill Dew Point Humidity Pressure Visibility Wind Dir Wind Speed Gust Speed Precip Events Conditions
12:52 AM 12.9 °F 5.2 °F 6.1 °F 74% 30.16 in 10.0 mi West 4.6 mph - N/A   Clear
1:52 AM 12.0 °F 5.9 °F 5.0 °F 73% 30.16 in 10.0 mi West 3.5 mph - N/A   Clear
2:52 AM 12.0 °F - 6.1 °F 77% 30.15 in 10.0 mi Calm Calm - N/A   Clear
3:52 AM 12.0 °F 5.9 °F 6.1 °F 77% 30.14 in 10.0 mi West 3.5 mph - N/A   Clear
4:52 AM 12.0 °F - 6.1 °F 77% 30.14 in 10.0 mi Calm Calm - N/A   Clear
5:52 AM 10.9 °F - 6.1 °F 81% 30.16 in 10.0 mi Calm Calm - N/A   Clear
6:52 AM 10.9 °F - 5.0 °F 77% 30.16 in 10.0 mi Calm Calm - N/A   Clear
7:52 AM 15.1 °F 7.7 °F 7.0 °F 70% 30.16 in 10.0 mi South 4.6 mph - N/A   Partly Cloudy
8:52 AM 19.9 °F 9.3 °F 8.1 °F 60% 30.17 in 10.0 mi SSW 9.2 mph - N/A   Clear
9:52 AM 24.1 °F 13.7 °F 10.0 °F 55% 30.15 in 10.0 mi South 10.4 mph - N/A   Clear
10:52 AM 26.1 °F 14.5 °F 14.0 °F 60% 30.12 in 10.0 mi SSW 13.8 mph - N/A   Overcast
11:52 AM 27.0 °F 14.7 °F 17.1 °F 66% 30.11 in 10.0 mi South 16.1 mph - N/A   Overcast
12:52 PM 27.0 °F 14.7 °F 19.0 °F 72% 30.07 in 9.0 mi South 16.1 mph - N/A   Overcast
1:52 PM 28.9 °F 17.3 °F 19.9 °F 69% 30.03 in 9.0 mi South 16.1 mph - N/A   Overcast
2:52 PM 30.9 °F 19.8 °F 21.0 °F 67% 29.99 in 9.0 mi South 16.1 mph - N/A   Overcast
3:52 PM 34.0 °F 21.8 °F 23.0 °F 64% 29.97 in 9.0 mi SSW 23.0 mph 27.6 mph N/A   Scattered Clouds
4:52 PM 35.1 °F 23.5 °F 23.0 °F 61% 29.96 in 10.0 mi SSW 21.9 mph 26.5 mph N/A   Clear
5:52 PM 34.0 °F 23.0 °F 25.0 °F 70% 29.95 in 8.0 mi SSW 18.4 mph - N/A   Clear
6:52 PM 33.1 °F 21.5 °F 27.0 °F 78% 29.94 in 7.0 mi SSW 19.6 mph - N/A   Clear
7:52 PM 32.0 °F 22.5 °F 27.0 °F 82% 29.93 in 7.0 mi SSW 12.7 mph - N/A   Clear
8:52 PM 32.0 °F 22.1 °F 28.9 °F 88% 29.90 in 6.0 mi SSW 13.8 mph - N/A   Clear
9:52 PM 34.0 °F 24.6 °F 30.9 °F 89% 29.87 in 7.0 mi SSW 13.8 mph - N/A   Clear
10:52 PM 36.0 °F 26.3 °F 33.1 °F 89% 29.85 in 7.0 mi SSW 16.1 mph - N/A   Clear
11:52 PM 37.9 °F 28.2 °F 33.1 °F 83% 29.83 in 8.0 mi SSW 18.4 mph 26.5 mph N/A   Clear